Missouri River (Missouri), Glasgow (06906500)

StateMissouriLatestUnknown (58400 cfs)
RiverMissouri RiverRatingObservedEstimated
Updated2026-05-05 7:30 (54 minutes ago)Flood - The river is flooding. Obstacles can be treacherous or deadly. The river should be avoided at this stage for casual trips and definitely for the inexperienced. Trips should be attempted only with protective gear and equipment.Flood(none)(none)
Discharge58400 cfs (median: 86000 cfs)High - The river is high and potentially dangerous, especially for the young and / or inexperienced. Normal stream obstacles are sometimes difficult to navigate. Extended distances can be attempted, but canoe travel may not be advisable.High(none)(none)
Height14.01 feetGood - Conditions are ideal for a canoe or kayak. Boats typically will drag on fewer than one-quarter of riffles, if at all, and portages are unnecessary or rare. Normal float lengths can be attempted without a problem.Good(none)(none)
TrendFalling (falling over 24 hours)Low - River is low but can still be floated. Some riffles are okay but most come with significant dragging and might need a portage. Float lengths should be reduced to accommodate low flow, dragging, and portages.Low(none)(none)
USGSExternal icon USGS Site (External icon Duck Duck Go Maps)Poor - River is too low to float comfortably. Most or all riffles will drag or must be portaged and some obstacles (such as slick shelf rock) cause undue problems. Avoid the river at this stage for casual paddling trips.Poor(none)(none)

Trending Data

Plot Image

Trips for Missouri River (Missouri), Glasgow (06906500)

DateStartEndDistanceConditionDischargeHeightFishingDetails

A total of 0 rows are displayed.

Condition Descriptions

Fishing Conditions

Fish Species

Notes

Classic Trip List

The classic River Trips application is still available for use. It is updated with the new system using a data retrofit. It is no longer maintained. The original River Trips application is no longer updated (as of 1 Dec 2016) but can be checked for errors or for the condition of the data before it was converted to the new system.

Gauge Data Table

ObservationHeightDischargeMaximum
Discharge
Minimum
Discharge
Mean
Discharge
P05P10P20P25P50
(Median)
P75P80P90P95
2026-05-05 07:30 14.01 58400 187000 (2019) 39400 (2023) 87600 40100 42600 48300 50300 86000 108000 110000 159000 181000
2026-05-05 06:30 14.03 58500 187000 (2019) 39400 (2023) 87600 40100 42600 48300 50300 86000 108000 110000 159000 181000
2026-05-05 05:30 13.99 58300 187000 (2019) 39400 (2023) 87600 40100 42600 48300 50300 86000 108000 110000 159000 181000
2026-05-05 04:30 14.03 58500 187000 (2019) 39400 (2023) 87600 40100 42600 48300 50300 86000 108000 110000 159000 181000
2026-05-05 03:30 14.05 58600 187000 (2019) 39400 (2023) 87600 40100 42600 48300 50300 86000 108000 110000 159000 181000
2026-05-05 02:30 14.05 58600 187000 (2019) 39400 (2023) 87600 40100 42600 48300 50300 86000 108000 110000 159000 181000
2026-05-05 01:30 14.09 58900 187000 (2019) 39400 (2023) 87600 40100 42600 48300 50300 86000 108000 110000 159000 181000
2026-05-05 00:30 14.09 58900 187000 (2019) 39400 (2023) 87600 40100 42600 48300 50300 86000 108000 110000 159000 181000
2026-05-04 23:30 14.04 58600 187000 (2019) 39400 (2023) 87600 40100 42600 48300 50300 86000 108000 110000 159000 181000
2026-05-04 22:30 14.08 58800 233000 (2019) 39700 (2023) 91200 40600 43600 48300 49500 85300 108000 136000 166000 217000
2026-05-04 21:30 14.13 59100 233000 (2019) 39700 (2023) 91200 40600 43600 48300 49500 85300 108000 136000 166000 217000
2026-05-04 20:30 14.13 59100 233000 (2019) 39700 (2023) 91200 40600 43600 48300 49500 85300 108000 136000 166000 217000
2026-05-04 19:30 14.16 59300 233000 (2019) 39700 (2023) 91200 40600 43600 48300 49500 85300 108000 136000 166000 217000
2026-05-04 18:30 14.16 59300 233000 (2019) 39700 (2023) 91200 40600 43600 48300 49500 85300 108000 136000 166000 217000
2026-05-04 17:30 14.18 59500 233000 (2019) 39700 (2023) 91200 40600 43600 48300 49500 85300 108000 136000 166000 217000
2026-05-04 16:30 14.21 59700 233000 (2019) 39700 (2023) 91200 40600 43600 48300 49500 85300 108000 136000 166000 217000
2026-05-04 15:30 14.22 59700 233000 (2019) 39700 (2023) 91200 40600 43600 48300 49500 85300 108000 136000 166000 217000
2026-05-04 14:30 14.26 60000 233000 (2019) 39700 (2023) 91200 40600 43600 48300 49500 85300 108000 136000 166000 217000
2026-05-04 13:30 14.29 60200 233000 (2019) 39700 (2023) 91200 40600 43600 48300 49500 85300 108000 136000 166000 217000
2026-05-04 12:30 14.33 60400 233000 (2019) 39700 (2023) 91200 40600 43600 48300 49500 85300 108000 136000 166000 217000
2026-05-04 11:30 14.35 60600 233000 (2019) 39700 (2023) 91200 40600 43600 48300 49500 85300 108000 136000 166000 217000
2026-05-04 10:30 14.38 60800 233000 (2019) 39700 (2023) 91200 40600 43600 48300 49500 85300 108000 136000 166000 217000
2026-05-04 09:30 14.40 60900 233000 (2019) 39700 (2023) 91200 40600 43600 48300 49500 85300 108000 136000 166000 217000
2026-05-04 08:30 14.43 61100 233000 (2019) 39700 (2023) 91200 40600 43600 48300 49500 85300 108000 136000 166000 217000
2026-05-04 07:30 14.51 61600 233000 (2019) 39700 (2023) 91200 40600 43600 48300 49500 85300 108000 136000 166000 217000
2026-05-04 06:30 14.52 61700 233000 (2019) 39700 (2023) 91200 40600 43600 48300 49500 85300 108000 136000 166000 217000
2026-05-04 05:30 14.59 62100 233000 (2019) 39700 (2023) 91200 40600 43600 48300 49500 85300 108000 136000 166000 217000
2026-05-04 04:30 14.60 62200 233000 (2019) 39700 (2023) 91200 40600 43600 48300 49500 85300 108000 136000 166000 217000
2026-05-04 03:30 14.65 62500 233000 (2019) 39700 (2023) 91200 40600 43600 48300 49500 85300 108000 136000 166000 217000
2026-05-04 02:30 14.70 62900 233000 (2019) 39700 (2023) 91200 40600 43600 48300 49500 85300 108000 136000 166000 217000
2026-05-04 01:30 14.71 62900 233000 (2019) 39700 (2023) 91200 40600 43600 48300 49500 85300 108000 136000 166000 217000
2026-05-04 00:30 14.75 63200 233000 (2019) 39700 (2023) 91200 40600 43600 48300 49500 85300 108000 136000 166000 217000
2026-05-03 23:30 14.79 63500 233000 (2019) 39700 (2023) 91200 40600 43600 48300 49500 85300 108000 136000 166000 217000
2026-05-03 22:30 14.82 63700 256000 (2019) 40100 (2023) 93400 41100 44400 46500 49700 81900 111000 142000 180000 237000
2026-05-03 21:30 14.85 63900 256000 (2019) 40100 (2023) 93400 41100 44400 46500 49700 81900 111000 142000 180000 237000
2026-05-03 20:30 14.87 64000 256000 (2019) 40100 (2023) 93400 41100 44400 46500 49700 81900 111000 142000 180000 237000
2026-05-03 19:30 14.92 64400 256000 (2019) 40100 (2023) 93400 41100 44400 46500 49700 81900 111000 142000 180000 237000
2026-05-03 18:30 14.95 64600 256000 (2019) 40100 (2023) 93400 41100 44400 46500 49700 81900 111000 142000 180000 237000
2026-05-03 17:30 14.98 64800 256000 (2019) 40100 (2023) 93400 41100 44400 46500 49700 81900 111000 142000 180000 237000
2026-05-03 16:30 14.99 64800 256000 (2019) 40100 (2023) 93400 41100 44400 46500 49700 81900 111000 142000 180000 237000
2026-05-03 15:30 15.02 65100 256000 (2019) 40100 (2023) 93400 41100 44400 46500 49700 81900 111000 142000 180000 237000
2026-05-03 14:30 15.05 65300 256000 (2019) 40100 (2023) 93400 41100 44400 46500 49700 81900 111000 142000 180000 237000
2026-05-03 13:30 15.06 65300 256000 (2019) 40100 (2023) 93400 41100 44400 46500 49700 81900 111000 142000 180000 237000
2026-05-03 12:30 15.14 65900 256000 (2019) 40100 (2023) 93400 41100 44400 46500 49700 81900 111000 142000 180000 237000
2026-05-03 11:30 15.20 66300 256000 (2019) 40100 (2023) 93400 41100 44400 46500 49700 81900 111000 142000 180000 237000
2026-05-03 10:30 15.11 65700 256000 (2019) 40100 (2023) 93400 41100 44400 46500 49700 81900 111000 142000 180000 237000
2026-05-03 09:30 15.20 66300 256000 (2019) 40100 (2023) 93400 41100 44400 46500 49700 81900 111000 142000 180000 237000
2026-05-03 08:30 15.19 66200 256000 (2019) 40100 (2023) 93400 41100 44400 46500 49700 81900 111000 142000 180000 237000
2026-05-03 07:30 15.24 66600 256000 (2019) 40100 (2023) 93400 41100 44400 46500 49700 81900 111000 142000 180000 237000
2026-05-03 06:30 15.29 66900 256000 (2019) 40100 (2023) 93400 41100 44400 46500 49700 81900 111000 142000 180000 237000
2026-05-03 05:30 15.33 67200 256000 (2019) 40100 (2023) 93400 41100 44400 46500 49700 81900 111000 142000 180000 237000
2026-05-03 04:30 15.38 67600 256000 (2019) 40100 (2023) 93400 41100 44400 46500 49700 81900 111000 142000 180000 237000
2026-05-03 03:30 15.43 67900 256000 (2019) 40100 (2023) 93400 41100 44400 46500 49700 81900 111000 142000 180000 237000
2026-05-03 02:30 15.49 68400 256000 (2019) 40100 (2023) 93400 41100 44400 46500 49700 81900 111000 142000 180000 237000
2026-05-03 01:30 15.53 68600 256000 (2019) 40100 (2023) 93400 41100 44400 46500 49700 81900 111000 142000 180000 237000
2026-05-03 00:30 15.55 68800 256000 (2019) 40100 (2023) 93400 41100 44400 46500 49700 81900 111000 142000 180000 237000
2026-05-02 23:30 15.59 69100 256000 (2019) 40100 (2023) 93400 41100 44400 46500 49700 81900 111000 142000 180000 237000
2026-05-02 22:30 15.63 69400 242000 (2019) 40800 (2023) 94000 41900 45500 49700 51700 83100 110000 143000 189000 234000
2026-05-02 21:30 15.67 69700 242000 (2019) 40800 (2023) 94000 41900 45500 49700 51700 83100 110000 143000 189000 234000
2026-05-02 20:30 15.70 69900 242000 (2019) 40800 (2023) 94000 41900 45500 49700 51700 83100 110000 143000 189000 234000
2026-05-02 19:30 15.75 70200 242000 (2019) 40800 (2023) 94000 41900 45500 49700 51700 83100 110000 143000 189000 234000
2026-05-02 18:30 15.79 70500 242000 (2019) 40800 (2023) 94000 41900 45500 49700 51700 83100 110000 143000 189000 234000
2026-05-02 17:30 15.82 70800 242000 (2019) 40800 (2023) 94000 41900 45500 49700 51700 83100 110000 143000 189000 234000
2026-05-02 16:30 15.88 71200 242000 (2019) 40800 (2023) 94000 41900 45500 49700 51700 83100 110000 143000 189000 234000
2026-05-02 15:30 15.93 71600 242000 (2019) 40800 (2023) 94000 41900 45500 49700 51700 83100 110000 143000 189000 234000
2026-05-02 14:30 15.97 71900 242000 (2019) 40800 (2023) 94000 41900 45500 49700 51700 83100 110000 143000 189000 234000
2026-05-02 13:30 16.02 72200 242000 (2019) 40800 (2023) 94000 41900 45500 49700 51700 83100 110000 143000 189000 234000
2026-05-02 12:30 16.08 72700 242000 (2019) 40800 (2023) 94000 41900 45500 49700 51700 83100 110000 143000 189000 234000
2026-05-02 11:30 16.10 72800 242000 (2019) 40800 (2023) 94000 41900 45500 49700 51700 83100 110000 143000 189000 234000
2026-05-02 10:30 16.21 73700 242000 (2019) 40800 (2023) 94000 41900 45500 49700 51700 83100 110000 143000 189000 234000
2026-05-02 09:30 16.28 74200 242000 (2019) 40800 (2023) 94000 41900 45500 49700 51700 83100 110000 143000 189000 234000
2026-05-02 08:30 16.33 74600 242000 (2019) 40800 (2023) 94000 41900 45500 49700 51700 83100 110000 143000 189000 234000
2026-05-02 07:30 16.40 75100 242000 (2019) 40800 (2023) 94000 41900 45500 49700 51700 83100 110000 143000 189000 234000
2026-05-02 06:30 16.50 75900 242000 (2019) 40800 (2023) 94000 41900 45500 49700 51700 83100 110000 143000 189000 234000
2026-05-02 05:30 16.56 76400 242000 (2019) 40800 (2023) 94000 41900 45500 49700 51700 83100 110000 143000 189000 234000
2026-05-02 04:30 16.64 77000 242000 (2019) 40800 (2023) 94000 41900 45500 49700 51700 83100 110000 143000 189000 234000
2026-05-02 03:30 16.69 77400 242000 (2019) 40800 (2023) 94000 41900 45500 49700 51700 83100 110000 143000 189000 234000
2026-05-02 02:30 16.82 78400 242000 (2019) 40800 (2023) 94000 41900 45500 49700 51700 83100 110000 143000 189000 234000
2026-05-02 01:30 16.90 79100 242000 (2019) 40800 (2023) 94000 41900 45500 49700 51700 83100 110000 143000 189000 234000
2026-05-02 00:30 16.99 79800 242000 (2019) 40800 (2023) 94000 41900 45500 49700 51700 83100 110000 143000 189000 234000
2026-05-01 23:30 17.06 80400 242000 (2019) 40800 (2023) 94000 41900 45500 49700 51700 83100 110000 143000 189000 234000
2026-05-01 22:30 17.15 81100 219000 (2009) 41400 (2023) 93800 42100 44500 48200 52200 79300 113000 158000 188000 215000
2026-05-01 21:30 17.24 81900 219000 (2009) 41400 (2023) 93800 42100 44500 48200 52200 79300 113000 158000 188000 215000
2026-05-01 20:30 17.33 82600 219000 (2009) 41400 (2023) 93800 42100 44500 48200 52200 79300 113000 158000 188000 215000
2026-05-01 19:30 17.43 83500 219000 (2009) 41400 (2023) 93800 42100 44500 48200 52200 79300 113000 158000 188000 215000
2026-05-01 18:30 17.52 84200 219000 (2009) 41400 (2023) 93800 42100 44500 48200 52200 79300 113000 158000 188000 215000
2026-05-01 17:30 17.63 85200 219000 (2009) 41400 (2023) 93800 42100 44500 48200 52200 79300 113000 158000 188000 215000
2026-05-01 16:30 17.76 86300 219000 (2009) 41400 (2023) 93800 42100 44500 48200 52200 79300 113000 158000 188000 215000
2026-05-01 15:30 17.82 86800 219000 (2009) 41400 (2023) 93800 42100 44500 48200 52200 79300 113000 158000 188000 215000
2026-05-01 14:30 17.97 88100 219000 (2009) 41400 (2023) 93800 42100 44500 48200 52200 79300 113000 158000 188000 215000
2026-05-01 13:30 18.07 89000 219000 (2009) 41400 (2023) 93800 42100 44500 48200 52200 79300 113000 158000 188000 215000
2026-05-01 12:30 18.19 90100 219000 (2009) 41400 (2023) 93800 42100 44500 48200 52200 79300 113000 158000 188000 215000
2026-05-01 11:30 18.35 91400 219000 (2009) 41400 (2023) 93800 42100 44500 48200 52200 79300 113000 158000 188000 215000
2026-05-01 10:30 18.49 92600 219000 (2009) 41400 (2023) 93800 42100 44500 48200 52200 79300 113000 158000 188000 215000
2026-05-01 09:30 18.62 93700 219000 (2009) 41400 (2023) 93800 42100 44500 48200 52200 79300 113000 158000 188000 215000
2026-05-01 08:30 18.75 94800 219000 (2009) 41400 (2023) 93800 42100 44500 48200 52200 79300 113000 158000 188000 215000
2026-05-01 07:30 18.89 96000 219000 (2009) 41400 (2023) 93800 42100 44500 48200 52200 79300 113000 158000 188000 215000
2026-05-01 06:30 19.04 97300 219000 (2009) 41400 (2023) 93800 42100 44500 48200 52200 79300 113000 158000 188000 215000
2026-05-01 05:30 19.19 98600 219000 (2009) 41400 (2023) 93800 42100 44500 48200 52200 79300 113000 158000 188000 215000
2026-05-01 04:30 19.33 99900 219000 (2009) 41400 (2023) 93800 42100 44500 48200 52200 79300 113000 158000 188000 215000
2026-05-01 03:30 19.48 101000 219000 (2009) 41400 (2023) 93800 42100 44500 48200 52200 79300 113000 158000 188000 215000
2026-05-01 02:30 19.64 103000 219000 (2009) 41400 (2023) 93800 42100 44500 48200 52200 79300 113000 158000 188000 215000
2026-05-01 01:30 19.80 104000 219000 (2009) 41400 (2023) 93800 42100 44500 48200 52200 79300 113000 158000 188000 215000
2026-05-01 00:30 19.97 106000 219000 (2009) 41400 (2023) 93800 42100 44500 48200 52200 79300 113000 158000 188000 215000
2026-04-30 23:30 20.13 107000 219000 (2009) 41400 (2023) 93800 42100 44500 48200 52200 79300 113000 158000 188000 215000
2026-04-30 22:30 20.30 109000 226000 (2009) 41000 (2004) 93100 41000 41700 49600 51900 77300 117000 120000 195000 218000
2026-04-30 21:30 20.47 110000 226000 (2009) 41000 (2004) 93100 41000 41700 49600 51900 77300 117000 120000 195000 218000
2026-04-30 20:30 20.67 112000 226000 (2009) 41000 (2004) 93100 41000 41700 49600 51900 77300 117000 120000 195000 218000
2026-04-30 19:30 20.87 114000 226000 (2009) 41000 (2004) 93100 41000 41700 49600 51900 77300 117000 120000 195000 218000
2026-04-30 18:30 21.04 116000 226000 (2009) 41000 (2004) 93100 41000 41700 49600 51900 77300 117000 120000 195000 218000
2026-04-30 17:30 21.23 118000 226000 (2009) 41000 (2004) 93100 41000 41700 49600 51900 77300 117000 120000 195000 218000
2026-04-30 16:30 21.37 119000 226000 (2009) 41000 (2004) 93100 41000 41700 49600 51900 77300 117000 120000 195000 218000
2026-04-30 15:30 21.56 121000 226000 (2009) 41000 (2004) 93100 41000 41700 49600 51900 77300 117000 120000 195000 218000
2026-04-30 14:30 21.70 123000 226000 (2009) 41000 (2004) 93100 41000 41700 49600 51900 77300 117000 120000 195000 218000
2026-04-30 13:30 21.92 125000 226000 (2009) 41000 (2004) 93100 41000 41700 49600 51900 77300 117000 120000 195000 218000
2026-04-30 12:30 22.12 127000 226000 (2009) 41000 (2004) 93100 41000 41700 49600 51900 77300 117000 120000 195000 218000
2026-04-30 11:30 22.29 129000 226000 (2009) 41000 (2004) 93100 41000 41700 49600 51900 77300 117000 120000 195000 218000
2026-04-30 10:30 22.48 131000 226000 (2009) 41000 (2004) 93100 41000 41700 49600 51900 77300 117000 120000 195000 218000
2026-04-30 09:30 22.74 134000 226000 (2009) 41000 (2004) 93100 41000 41700 49600 51900 77300 117000 120000 195000 218000
2026-04-30 08:30 22.90 136000 226000 (2009) 41000 (2004) 93100 41000 41700 49600 51900 77300 117000 120000 195000 218000
2026-04-30 07:30 23.08 138000 226000 (2009) 41000 (2004) 93100 41000 41700 49600 51900 77300 117000 120000 195000 218000
2026-04-30 06:30 23.29 140000 226000 (2009) 41000 (2004) 93100 41000 41700 49600 51900 77300 117000 120000 195000 218000
2026-04-30 05:30 23.48 143000 226000 (2009) 41000 (2004) 93100 41000 41700 49600 51900 77300 117000 120000 195000 218000
2026-04-30 04:30 23.66 145000 226000 (2009) 41000 (2004) 93100 41000 41700 49600 51900 77300 117000 120000 195000 218000
2026-04-30 03:30 23.82 147000 226000 (2009) 41000 (2004) 93100 41000 41700 49600 51900 77300 117000 120000 195000 218000
2026-04-30 02:30 23.95 148000 226000 (2009) 41000 (2004) 93100 41000 41700 49600 51900 77300 117000 120000 195000 218000
2026-04-30 01:30 24.11 150000 226000 (2009) 41000 (2004) 93100 41000 41700 49600 51900 77300 117000 120000 195000 218000
2026-04-30 00:30 24.23 152000 226000 (2009) 41000 (2004) 93100 41000 41700 49600 51900 77300 117000 120000 195000 218000
2026-04-29 23:30 24.32 153000 226000 (2009) 41000 (2004) 93100 41000 41700 49600 51900 77300 117000 120000 195000 218000
2026-04-29 22:30 24.40 154000 227000 (2009) 39100 (2006) 94200 39400 41500 50800 51600 75700 132000 141000 196000 222000
2026-04-29 21:30 24.45 154000 227000 (2009) 39100 (2006) 94200 39400 41500 50800 51600 75700 132000 141000 196000 222000
2026-04-29 20:30 24.53 155000 227000 (2009) 39100 (2006) 94200 39400 41500 50800 51600 75700 132000 141000 196000 222000
2026-04-29 19:30 24.54 156000 227000 (2009) 39100 (2006) 94200 39400 41500 50800 51600 75700 132000 141000 196000 222000
2026-04-29 18:30 24.58 156000 227000 (2009) 39100 (2006) 94200 39400 41500 50800 51600 75700 132000 141000 196000 222000
2026-04-29 17:30 24.63 157000 227000 (2009) 39100 (2006) 94200 39400 41500 50800 51600 75700 132000 141000 196000 222000
2026-04-29 16:30 24.66 157000 227000 (2009) 39100 (2006) 94200 39400 41500 50800 51600 75700 132000 141000 196000 222000
2026-04-29 15:30 24.64 157000 227000 (2009) 39100 (2006) 94200 39400 41500 50800 51600 75700 132000 141000 196000 222000
2026-04-29 14:30 24.65 157000 227000 (2009) 39100 (2006) 94200 39400 41500 50800 51600 75700 132000 141000 196000 222000
2026-04-29 13:30 24.71 158000 227000 (2009) 39100 (2006) 94200 39400 41500 50800 51600 75700 132000 141000 196000 222000
2026-04-29 12:30 24.72 158000 227000 (2009) 39100 (2006) 94200 39400 41500 50800 51600 75700 132000 141000 196000 222000
2026-04-29 11:30 24.76 158000 227000 (2009) 39100 (2006) 94200 39400 41500 50800 51600 75700 132000 141000 196000 222000
2026-04-29 10:30 24.80 159000 227000 (2009) 39100 (2006) 94200 39400 41500 50800 51600 75700 132000 141000 196000 222000
2026-04-29 09:30 24.70 158000 227000 (2009) 39100 (2006) 94200 39400 41500 50800 51600 75700 132000 141000 196000 222000
2026-04-29 08:30 24.66 157000 227000 (2009) 39100 (2006) 94200 39400 41500 50800 51600 75700 132000 141000 196000 222000
2026-04-29 07:30 24.68 157000 227000 (2009) 39100 (2006) 94200 39400 41500 50800 51600 75700 132000 141000 196000 222000
2026-04-29 06:30 24.65 157000 227000 (2009) 39100 (2006) 94200 39400 41500 50800 51600 75700 132000 141000 196000 222000
2026-04-29 05:30 24.61 156000 227000 (2009) 39100 (2006) 94200 39400 41500 50800 51600 75700 132000 141000 196000 222000
2026-04-29 04:30 24.53 155000 227000 (2009) 39100 (2006) 94200 39400 41500 50800 51600 75700 132000 141000 196000 222000
2026-04-29 03:30 24.42 154000 227000 (2009) 39100 (2006) 94200 39400 41500 50800 51600 75700 132000 141000 196000 222000
2026-04-29 02:30 24.34 153000 227000 (2009) 39100 (2006) 94200 39400 41500 50800 51600 75700 132000 141000 196000 222000
2026-04-29 01:30 24.26 152000 227000 (2009) 39100 (2006) 94200 39400 41500 50800 51600 75700 132000 141000 196000 222000
2026-04-29 00:30 24.19 151000 227000 (2009) 39100 (2006) 94200 39400 41500 50800 51600 75700 132000 141000 196000 222000
2026-04-28 23:30 24.12 150000 227000 (2009) 39100 (2006) 94200 39400 41500 50800 51600 75700 132000 141000 196000 222000
2026-04-28 22:30 23.99 149000 174000 (2009) 38700 (2004) 88500 39000 41800 51100 52000 72200 130000 133000 162000 171000
2026-04-28 21:30 23.80 146000 174000 (2009) 38700 (2004) 88500 39000 41800 51100 52000 72200 130000 133000 162000 171000
2026-04-28 20:30 23.61 144000 174000 (2009) 38700 (2004) 88500 39000 41800 51100 52000 72200 130000 133000 162000 171000
2026-04-28 19:30 23.45 142000 174000 (2009) 38700 (2004) 88500 39000 41800 51100 52000 72200 130000 133000 162000 171000
2026-04-28 18:30 23.25 140000 174000 (2009) 38700 (2004) 88500 39000 41800 51100 52000 72200 130000 133000 162000 171000
2026-04-28 17:30 23.04 138000 174000 (2009) 38700 (2004) 88500 39000 41800 51100 52000 72200 130000 133000 162000 171000
2026-04-28 16:30 22.76 134000 174000 (2009) 38700 (2004) 88500 39000 41800 51100 52000 72200 130000 133000 162000 171000
2026-04-28 15:30 22.60 133000 174000 (2009) 38700 (2004) 88500 39000 41800 51100 52000 72200 130000 133000 162000 171000
2026-04-28 14:30 22.33 130000 174000 (2009) 38700 (2004) 88500 39000 41800 51100 52000 72200 130000 133000 162000 171000
2026-04-28 13:30 21.99 126000 174000 (2009) 38700 (2004) 88500 39000 41800 51100 52000 72200 130000 133000 162000 171000
2026-04-28 12:30 21.67 123000 174000 (2009) 38700 (2004) 88500 39000 41800 51100 52000 72200 130000 133000 162000 171000
2026-04-28 11:30 21.34 119000 174000 (2009) 38700 (2004) 88500 39000 41800 51100 52000 72200 130000 133000 162000 171000
2026-04-28 10:30 20.98 115000 174000 (2009) 38700 (2004) 88500 39000 41800 51100 52000 72200 130000 133000 162000 171000
2026-04-28 09:30 20.63 112000 174000 (2009) 38700 (2004) 88500 39000 41800 51100 52000 72200 130000 133000 162000 171000
2026-04-28 08:30 20.25 108000 174000 (2009) 38700 (2004) 88500 39000 41800 51100 52000 72200 130000 133000 162000 171000
2026-04-28 07:30 19.85 105000 174000 (2009) 38700 (2004) 88500 39000 41800 51100 52000 72200 130000 133000 162000 171000
2026-04-28 06:30 19.47 101000 174000 (2009) 38700 (2004) 88500 39000 41800 51100 52000 72200 130000 133000 162000 171000
2026-04-28 05:30 19.12 98000 174000 (2009) 38700 (2004) 88500 39000 41800 51100 52000 72200 130000 133000 162000 171000
2026-04-28 04:30 18.79 95100 174000 (2009) 38700 (2004) 88500 39000 41800 51100 52000 72200 130000 133000 162000 171000
2026-04-28 03:30 18.54 93000 174000 (2009) 38700 (2004) 88500 39000 41800 51100 52000 72200 130000 133000 162000 171000
2026-04-28 02:30 18.35 91400 174000 (2009) 38700 (2004) 88500 39000 41800 51100 52000 72200 130000 133000 162000 171000
2026-04-28 01:30 18.15 89700 174000 (2009) 38700 (2004) 88500 39000 41800 51100 52000 72200 130000 133000 162000 171000
2026-04-28 00:30 18.03 88600 174000 (2009) 38700 (2004) 88500 39000 41800 51100 52000 72200 130000 133000 162000 171000
2026-04-27 23:30 17.91 87600 174000 (2009) 38700 (2004) 88500 39000 41800 51100 52000 72200 130000 133000 162000 171000

A total of 177 rows are displayed for years 2001 through 2024.